New Roads False River Regiona, LA

8:41 PM CST on November 19, 2019 (GMT -0600)
False River

Weather History for KHZR - June, 2019

Change the Weather History Date:

Tuesday, June 11, 2019

  Actual Average (KBTR) Record (KBTR)
Temperature  
Mean Temperature 72 °F -  
Max Temperature 78 °F 89 °F 98 °F (1953)
Min Temperature 66 °F 69 °F 59 °F (1955)
Cooling Degree Days 7    
Growing Degree Days 22 (Base 50)    
Moisture  
Dew Point 62 °F    
Average Humidity 68    
Maximum Humidity 83    
Minimum Humidity 57    
Precipitation  
Precipitation 0.00 in - - ()
Sea Level Pressure  
Sea Level Pressure 30.05 in    
Wind  
Wind Speed 7 mph ()    
Max Wind Speed 10 mph    
Max Gust Speed -    
Visibility 10.0 miles    
Events      
Averages and records for this station are not official NWS values.
T = Trace of Precipitation, MM = Missing Value Source: Averaged Metar Reports

Daily Weather History Graph

Daily Weather History Graph

Search for Another Location

Airport or City:

Astronomy

Jun. 11, 2019 Rise Set
Actual Time 6:02 AM CDT 8:08 PM CDT
Civil Twilight 5:34 AM CDT 8:36 PM CDT
Nautical Twilight 5:01 AM CDT 9:10 PM CDT
Astronomical Twilight 4:25 AM CDT 9:46 PM CDT
Moon 2:34 PM CDT (6/11) 2:17 AM CDT (6/11)
Length of Visible Light 15h 01m
Length of Day
14h 06m
Waxing Gibbous, 66% of the Moon is Illuminated
Jun 11
Waxing Gibbous
Jun 17
Full
Jun 25
Last Quarter
Jul 2
New
Jul 9
First Quarter

Hourly Weather History & Observations

Time (CDT) Temp. Dew Point Humidity Pressure Visibility Wind Dir Wind Speed Gust Speed Precip Events Conditions
12:16 AM 73.4 °F 64.4 °F 73% 30.09 in 10.0 mi North 10.4 mph - N/A   Clear
12:34 AM 73.4 °F 64.4 °F 73% 30.08 in 10.0 mi North 10.4 mph - N/A   Clear
12:54 AM 73.4 °F 62.6 °F 69% 30.08 in 10.0 mi North 10.4 mph - N/A   Clear
1:16 AM 71.6 °F 62.6 °F 73% 30.08 in 10.0 mi North 9.2 mph - N/A   Clear
1:34 AM 71.6 °F 62.6 °F 73% 30.08 in 10.0 mi North 8.1 mph - N/A   Clear
2:14 AM 71.6 °F 62.6 °F 73% 30.08 in 10.0 mi North 8.1 mph - N/A   Clear
2:34 AM 71.6 °F 62.6 °F 73% 30.08 in 10.0 mi North 6.9 mph - N/A   Clear
2:54 AM 69.8 °F 62.6 °F 78% 30.07 in 10.0 mi North 5.8 mph - N/A   Clear
3:54 AM 69.8 °F 60.8 °F 73% 30.07 in 10.0 mi North 6.9 mph - N/A   Clear
4:14 AM 69.8 °F 60.8 °F 73% 30.07 in 10.0 mi North 8.1 mph - N/A   Clear
4:36 AM 68.0 °F 60.8 °F 78% 30.07 in 10.0 mi North 5.8 mph - N/A   Clear
4:55 AM 68.0 °F 60.8 °F 78% 30.08 in 10.0 mi North 5.8 mph - N/A   Clear
5:16 AM 66.2 °F 60.8 °F 83% 30.08 in 10.0 mi NNE 5.8 mph - N/A   Clear
5:36 AM 68.0 °F 59.0 °F 73% 30.09 in 10.0 mi North 6.9 mph - N/A   Clear
5:54 AM 66.2 °F 59.0 °F 78% 30.10 in 10.0 mi North 4.6 mph - N/A   Clear
6:55 AM 69.8 °F 59.0 °F 68% 30.09 in 10.0 mi NNE 9.2 mph - N/A   Clear
7:36 AM 69.8 °F 59.0 °F 68% 30.09 in 10.0 mi NNE 8.1 mph - N/A   Clear
7:55 AM 71.6 °F 59.0 °F 64% 30.10 in 10.0 mi NNE 5.8 mph - N/A   Clear
8:14 AM 71.6 °F 59.0 °F 64% 30.10 in 10.0 mi NE 8.1 mph - N/A   Clear
8:34 AM 71.6 °F 59.0 °F 64% 30.10 in 10.0 mi ENE 9.2 mph - N/A   Clear
9:35 AM 73.4 °F 60.8 °F 65% 30.09 in 10.0 mi NNE 9.2 mph - N/A   Clear
9:55 AM 75.2 °F 60.8 °F 61% 30.09 in 10.0 mi NNE 6.9 mph - N/A   Clear
10:16 AM 75.2 °F 60.8 °F 61% 30.08 in 10.0 mi NE 5.8 mph - N/A   Clear
10:54 AM 77.0 °F 62.6 °F 61% 30.07 in 10.0 mi Calm Calm - N/A   Scattered Clouds
11:16 AM 75.2 °F 60.8 °F 61% 30.08 in 10.0 mi NNE 5.8 mph - N/A   Clear
11:34 AM 77.0 °F 62.6 °F 61% 30.07 in 10.0 mi North 4.6 mph - N/A   Clear
11:54 AM 77.0 °F 62.6 °F 61% 30.07 in 10.0 mi NW 3.5 mph - N/A   Clear
12:15 PM 78.8 °F 62.6 °F 57% 30.06 in 10.0 mi Calm Calm - N/A   Clear
12:54 PM 78.8 °F 62.6 °F 57% 30.05 in 10.0 mi NW 3.5 mph - N/A   Clear
1:34 PM 78.8 °F 64.4 °F 61% 30.03 in 10.0 mi NNW 4.6 mph - N/A   Clear
2:55 PM 78.8 °F 64.4 °F 61% 30.02 in 10.0 mi NW 5.8 mph - N/A   Clear
3:54 PM 78.8 °F 64.4 °F 61% 30.00 in 10.0 mi NW 9.2 mph - N/A   Clear
4:14 PM 78.8 °F 64.4 °F 61% 30.01 in 10.0 mi NW 9.2 mph - N/A   Clear
4:54 PM 78.8 °F 64.4 °F 61% 29.99 in 10.0 mi NNW 10.4 mph - N/A   Clear
5:54 PM 78.8 °F 64.4 °F 61% 29.97 in 10.0 mi NNW 10.4 mph - N/A   Clear
6:14 PM 78.8 °F 64.4 °F 61% 29.97 in 10.0 mi NNW 6.9 mph - N/A   Clear
6:35 PM 78.8 °F 64.4 °F 61% 29.98 in 10.0 mi NW 5.8 mph - N/A   Clear
6:55 PM 78.8 °F 64.4 °F 61% 29.97 in 10.0 mi North 6.9 mph - N/A   Clear
7:14 PM 77.0 °F 62.6 °F 61% 29.98 in 10.0 mi North 8.1 mph - N/A   Clear
7:34 PM 75.2 °F 64.4 °F 69% 29.98 in 10.0 mi NNW 4.6 mph - N/A   Clear
7:54 PM 73.4 °F 60.8 °F 65% 29.98 in 10.0 mi NNW 5.8 mph - N/A   Clear
9:34 PM 68.0 °F 60.8 °F 78% 29.98 in 10.0 mi Calm Calm - N/A   Clear
10:16 PM 68.0 °F 60.8 °F 78% 29.99 in 10.0 mi North 3.5 mph - N/A   Clear
10:56 PM 68.0 °F 60.8 °F 78% 30.01 in 10.0 mi Calm Calm - N/A   Clear
11:55 PM 66.2 °F 60.8 °F 83% 30.00 in 10.0 mi Calm Calm - N/A   Clear